This is the latest recevied weather packets stored in our database for station/object K1BWE-1. If no packets are shown the sender has not sent any weather packets the latest 10 day(s).
| Time | Temp. | Humidity | Pressure | Rain* | Wind** | Luminosity | Snow |
|---|---|---|---|---|---|---|---|
| 1778135920 | 14.44° C | 46% | 1017 hPa | 0 mm | - | 0 W/m² | - |
| 1778135616 | 14.44° C | 45% | 1017.1 hPa | 0 mm | - | 0 W/m² | - |
| 1778135313 | 15° C | 45% | 1016.8 hPa | 0 mm | - | 0 W/m² | - |
| 1778135010 | 15° C | 45% | 1017 hPa | 0 mm | - | 0 W/m² | - |
| 1778134708 | 14.44° C | 45% | 1017.1 hPa | 0 mm | - | 0 W/m² | - |
| 1778134406 | 15° C | 45% | 1017.2 hPa | 0 mm | - | 0 W/m² | - |
| 1778134104 | 14.44° C | 46% | 1017.1 hPa | 0 mm | - | 0 W/m² | - |
| 1778133800 | 14.44° C | 46% | 1017.1 hPa | 0 mm | - | 0 W/m² | - |
| 1778133497 | 15° C | 43% | 1017.1 hPa | 0 mm | - | 0 W/m² | - |
| 1778133192 | 15° C | 43% | 1017.1 hPa | 0 mm | - | 0 W/m² | - |
| 1778132889 | 15.56° C | 42% | 1017 hPa | 0 mm | - | 0 W/m² | - |
| 1778132585 | 15.56° C | 42% | 1016.8 hPa | 0 mm | - | 0 W/m² | - |
| 1778132283 | 15.56° C | 41% | 1017.1 hPa | 0 mm | - | 0 W/m² | - |
| 1778131981 | 15.56° C | 41% | 1017.1 hPa | 0 mm | - | 0 W/m² | - |
| 1778131679 | 16.11° C | 41% | 1017.2 hPa | 0 mm | - | 0 W/m² | - |
| 1778131375 | 16.11° C | 41% | 1017 hPa | 0 mm | - | 0 W/m² | - |
| 1778131073 | 16.11° C | 40% | 1017.3 hPa | 0 mm | - | 0 W/m² | - |
| 1778130770 | 16.67° C | 38% | 1017 hPa | 0 mm | - | 0 W/m² | - |
| 1778130467 | 16.67° C | 37% | 1016.8 hPa | 0 mm | - | 0 W/m² | - |
| 1778130163 | 16.67° C | 37% | 1017 hPa | 0 mm | - | 0 W/m² | - |
| 1778129860 | 16.67° C | 35% | 1017.2 hPa | 0 mm | - | 0 W/m² | - |
| 1778129556 | 17.22° C | 34% | 1017.1 hPa | 0 mm | - | 0 W/m² | - |
| 1778129254 | 17.22° C | 33% | 1016.8 hPa | 0 mm | - | 0 W/m² | - |
| 1778128950 | 17.78° C | 33% | 1017.1 hPa | 0 mm | - | 0 W/m² | - |
| 1778128646 | 17.78° C | 32% | 1017.1 hPa | 0 mm | - | 0 W/m² | - |
* Rain latest hour (hover to see other rain measurements)
** Current wind speed in m/s (hover to see current wind gust speed)